Wilmington, OH

6:28 PM EST on February 27, 2017 (GMT -0500)
Airborne

Weather History for KILN - March, 2014

Change the Weather History Date:

Saturday, March 8, 2014

  Actual Average (KFFO) Record (KFFO)
Temperature  
Mean Temperature 42 °F -  
Max Temperature 53 °F 43 °F 73 °F (2016)
Min Temperature 30 °F 24 °F 15 °F (1999)
Degree Days  
Heating Degree Days 24    
Moisture  
Dew Point 32 °F    
Average Humidity 75    
Maximum Humidity 89    
Minimum Humidity 45    
Precipitation  
Precipitation 0.00 in - - ()
Sea Level Pressure  
Sea Level Pressure 30.08 in    
Wind  
Wind Speed 8 mph (WNW)    
Max Wind Speed 14 mph    
Max Gust Speed -    
Visibility 7 miles    
Events      
Averages and records for this station are not official NWS values.
T = Trace of Precipitation, MM = Missing Value Source: NWS Daily Summary

Daily Weather History Graph

Daily Weather History Graph

Search for Another Location

Airport or City:

Trip Planner

Search our weather history database for the weather conditions in past years. The results will help you decide how hot, cold, wet, or windy it might be!

Date:

Astronomy

Mar. 08, 2014 Rise Set
Actual Time 6:57 AM EST 6:34 PM EST
Civil Twilight 6:30 AM EST 7:01 PM EST
Nautical Twilight 5:59 AM EST 7:32 PM EST
Astronomical Twilight 5:28 AM EST 8:04 PM EST
Moon 11:39 AM EST (3/8) 1:30 AM EST (3/8)
Length of Visible Light 12h 31m
Length of Day
11h 37m
First Quarter, 51% of the Moon is Illuminated
Mar 8
First Quarter
Mar 16
Full
Mar 23
Last Quarter
Mar 30
New
Apr 7
First Quarter

Hourly Weather History & Observations

Time (EST) Temp. Windchill Dew Point Humidity Pressure Visibility Wind Dir Wind Speed Gust Speed Precip Events Conditions
12:54 AM 35.1 °F 31.0 °F 30.0 °F 82% 30.02 in 10.0 mi SW 4.6 mph - N/A   Clear
1:54 AM 35.1 °F 30.1 °F 28.9 °F 78% 30.02 in 10.0 mi WSW 5.8 mph - N/A   Clear
2:54 AM 35.1 °F 31.0 °F 28.0 °F 76% 30.01 in 10.0 mi West 4.6 mph - N/A   Clear
3:54 AM 33.1 °F 27.7 °F 27.0 °F 78% 30.00 in 10.0 mi SW 5.8 mph - N/A   Clear
4:54 AM 35.1 °F 31.0 °F 28.9 °F 78% 30.01 in 10.0 mi WSW 4.6 mph - N/A   Clear
5:54 AM 30.9 °F 25.2 °F 27.0 °F 85% 30.03 in 9.0 mi SW 5.8 mph - N/A   Clear
6:54 AM 32.0 °F 25.6 °F 28.0 °F 85% 30.06 in 9.0 mi SW 6.9 mph - N/A   Clear
7:54 AM 36.0 °F 30.3 °F 30.0 °F 79% 30.09 in 7.0 mi WSW 6.9 mph - N/A   Clear
8:54 AM 42.1 °F 37.1 °F 35.1 °F 76% 30.10 in 7.0 mi WSW 8.1 mph - N/A   Clear
9:54 AM 45.0 °F 41.2 °F 35.1 °F 68% 30.08 in 8.0 mi WSW 6.9 mph - N/A   Clear
10:54 AM 48.9 °F - 37.0 °F 64% 30.08 in 10.0 mi SW 8.1 mph - N/A   Clear
11:54 AM 52.0 °F - 36.0 °F 54% 30.07 in 10.0 mi WSW 8.1 mph - N/A   Partly Cloudy
12:54 PM 53.1 °F - 37.0 °F 55% 30.06 in 10.0 mi West 8.1 mph - N/A   Partly Cloudy
1:54 PM 53.1 °F - 35.1 °F 50% 30.04 in 10.0 mi SW 9.2 mph - N/A   Overcast
2:54 PM 53.1 °F - 32.0 °F 45% 30.03 in 10.0 mi WSW 12.7 mph - N/A   Overcast
3:54 PM 53.1 °F - 33.1 °F 47% 30.04 in 10.0 mi West 11.5 mph - N/A   Mostly Cloudy
4:54 PM 52.0 °F - 34.0 °F 50% 30.04 in 10.0 mi WNW 10.4 mph - N/A   Mostly Cloudy
5:54 PM 48.9 °F - 36.0 °F 61% 30.06 in 7.0 mi NNW 8.1 mph - N/A   Overcast
6:54 PM 44.1 °F 38.6 °F 37.0 °F 76% 30.10 in 4.0 mi North 10.4 mph - N/A   Haze
7:36 PM 39.9 °F 32.5 °F 36.0 °F 86% 30.06 in 2.5 mi North 12.7 mph - N/A   Overcast
7:51 PM 39.2 °F 31.6 °F 35.6 °F 87% 30.06 in 2.5 mi North 12.7 mph - N/A   Overcast
7:54 PM 39.0 °F 31.0 °F 35.1 °F 86% 30.13 in 2.5 mi North 13.8 mph - N/A   Overcast
8:42 PM 37.0 °F 28.5 °F 33.1 °F 86% 30.08 in 2.5 mi North 13.8 mph - N/A   Overcast
8:54 PM 37.0 °F 30.4 °F 33.1 °F 86% 30.14 in 2.5 mi North 9.2 mph - N/A   Overcast
9:02 PM 36.0 °F 29.6 °F 33.1 °F 89% 30.09 in 2.5 mi NNW 8.1 mph - N/A   Overcast
9:18 PM 36.0 °F 28.0 °F 32.0 °F 86% 30.09 in 3.0 mi NNW 11.5 mph - N/A   Overcast
9:54 PM 35.1 °F 26.9 °F 32.0 °F 89% 30.16 in 3.0 mi North 11.5 mph - N/A   Overcast
10:38 PM 35.1 °F 27.9 °F 30.9 °F 85% 30.11 in 3.0 mi NNW 9.2 mph - N/A   Overcast
10:54 PM 34.0 °F 26.6 °F 30.9 °F 89% 30.17 in 3.0 mi NNW 9.2 mph - N/A   Overcast
11:13 PM 34.0 °F 26.0 °F 30.0 °F 85% 30.13 in 4.0 mi North 10.4 mph - N/A   Overcast
11:43 PM 34.0 °F 26.6 °F 30.0 °F 85% 30.14 in 5.0 mi NNW 9.2 mph - N/A   Overcast
11:54 PM 33.1 °F 24.4 °F 30.0 °F 89% 30.19 in 4.0 mi North 11.5 mph - N/A   Overcast